Weather History for Whitefield, NH

Change the Weather History Date:

Friday, March 8, 2013

  Actual Average Record
Temperature  
Mean Temperature 29 °F -  
Max Temperature 39 °F 31 °F 62 °F (2012)
Min Temperature 19 °F 8 °F -25 °F (2007)
Degree Days  
Heating Degree Days 36    
Moisture  
Dew Point 19 °F    
Average Humidity 64    
Maximum Humidity 85    
Minimum Humidity 41    
Precipitation  
Precipitation 0.00 in - - ()
Sea Level Pressure  
Sea Level Pressure 30.19 in    
Wind  
Wind Speed 2 mph (NE)    
Max Wind Speed 7 mph    
Max Gust Speed -    
Visibility 10 miles    
Events      
Averages and records for this station are not official NWS values.
T = Trace of Precipitation, MM = Missing Value Source: NWS Daily Summary

Daily Weather History Graph

Daily Weather History Graph

Search for Another Location

Airport:

Trip Planner

Search our weather history database for the weather conditions in past years. The results will help you decide how hot, cold, wet, or windy it might be!

Date:

Astronomy

Mar. 08, 2013 Rise Set
Actual Time 6:10 AM EST 5:43 PM EST
Civil Twilight 5:41 AM EST 6:12 PM EST
Nautical Twilight 5:08 AM EST 6:46 PM EST
Astronomical Twilight 4:34 AM EST 7:20 PM EST
Moon 3:59 AM EST (3/8) 2:29 PM EST (3/8)
Length of Visible Light 12h 30m
Length of Day
11h 32m
Waning Crescent, 12% of the Moon is Illuminated
Mar 8
Waning Crescent
Mar 11
New
Mar 19
First Quarter
Mar 27
Full
Apr 3
Last Quarter

Hourly Weather History & Observations

Time (EST) Temp. Windchill Dew Point Humidity Pressure Visibility Wind Dir Wind Speed Gust Speed Precip Events Conditions
1:52 AM 30.0 °F 23.2 °F 19.9 °F 66% 30.12 in 10.0 mi ENE 6.9 mph - N/A   Overcast
2:52 AM 30.0 °F - 19.9 °F 66% 30.11 in 10.0 mi Calm Calm - N/A   Overcast
3:52 AM 30.0 °F 26.5 °F 19.9 °F 66% 30.11 in 10.0 mi East 3.5 mph - N/A   Overcast
4:52 AM 28.9 °F 23.9 °F 19.9 °F 69% 30.12 in 10.0 mi East 4.6 mph - N/A   Overcast
5:52 AM 30.0 °F - 19.9 °F 66% 30.12 in 10.0 mi Calm Calm - N/A   Overcast
6:52 AM 28.9 °F 23.9 °F 19.9 °F 69% 30.14 in 10.0 mi NW 4.6 mph - N/A   Overcast
7:52 AM 30.0 °F - 19.0 °F 64% 30.16 in 10.0 mi Calm Calm - N/A   Overcast
8:52 AM 30.9 °F 26.2 °F 19.9 °F 64% 30.16 in 10.0 mi East 4.6 mph - N/A   Overcast
9:52 AM 32.0 °F 28.7 °F 19.9 °F 61% 30.17 in 10.0 mi NW 3.5 mph - N/A   Overcast
10:52 AM 33.1 °F - 19.9 °F 59% 30.18 in 10.0 mi Calm Calm - N/A   Mostly Cloudy
11:52 AM 35.1 °F - 19.0 °F 52% 30.19 in 10.0 mi Calm Calm - N/A   Mostly Cloudy
12:52 PM 37.0 °F 34.5 °F 19.0 °F 48% 30.18 in 10.0 mi Variable 3.5 mph - N/A   Clear
1:52 PM 37.9 °F - 19.0 °F 47% 30.18 in 10.0 mi Calm Calm - N/A   Clear
2:52 PM 37.0 °F - 23.0 °F 57% 30.19 in 10.0 mi Calm Calm - N/A   Clear
3:52 PM 39.0 °F - 21.0 °F 49% 30.19 in 10.0 mi Calm Calm - N/A   Clear
4:52 PM 39.9 °F - 18.0 °F 41% 30.21 in 10.0 mi Calm Calm - N/A   Clear
5:52 PM 33.1 °F - 19.9 °F 59% 30.22 in 10.0 mi Calm Calm - N/A   Clear
6:52 PM 28.9 °F - 19.9 °F 69% 30.25 in 10.0 mi Calm Calm - N/A   Clear
7:52 PM 25.0 °F - 18.0 °F 75% 30.27 in 10.0 mi Calm Calm - N/A   Clear
8:52 PM 24.1 °F - 18.0 °F 77% 30.29 in 10.0 mi Calm Calm - N/A   Clear
9:52 PM 21.9 °F - 17.1 °F 82% 30.30 in 10.0 mi Calm Calm - N/A   Clear
10:52 PM 19.9 °F - 16.0 °F 85% 30.29 in 10.0 mi Calm Calm - N/A   Clear
11:52 PM 19.0 °F - 15.1 °F 85% 30.29 in 10.0 mi Calm Calm - N/A   Clear